Temp
-12 -12 -11 -11 -12 -12 -12 -11 -11 -11 -11 -12 -12 -11 -11 -10 -10 -9 -9 -9 -9 -8 -8 -8 -9 -9 -9 -9 -9 -10 -10 -10 -10 -11 -11 -11 -11 -12 -12 -13 -13 -13 -13 -13
-13 -12 -11 -12 -12 -12 -12 -12 -12 -12 -12 -11 -11 -11 -10 -10 -9 -9 -9 -9 -9 -8 -8 -9 -9 -9 -9 -9 -10 -10 -10 -10 -11 -10 -10 -11 -11 -11 -12 -13 -13 -13 -13 -13
-17 -15 -14 -13 -13 -12 -12 -12 -12 -12 -12 -12 -11 -10 -10 -9 -9 -9 -9 -9 -8 -8 -8 -9 -9 -9 -9 -10 -10 -10 -10 -10 -10 -10 -10 -11 -11 -12 -11 -12 -13 -13 -13 -13
-22 -20 -17 -17 -14 -14 -13 -12 -12 -12 -12 -11 -12 -10 -9 -9 -9 -9 -9 -9 -9 -9 -9 -9 -9 -9 -9 -10 -10 -9 -9 -10 -10 -10 -11 -11 -12 -11 -12 -12 -13 -13 -13 -13
-23 -22 -21 -20 -17 -16 -13 -13 -12 -12 -12 -12 -11 -11 -8 -10 -9 -8 -9 -9 -9 -10 -10 -9 -10 -10 -10 -9 -9 -9 -9 -9 -10 -10 -11 -11 -12 -12 -12 -13 -13 -13 -13 -12
-23 -23 -23 -22 -20 -19 -16 -15 -14 -13 -13 -12 -11 -11 -9 -9 -9 -9 -9 -10 -10 -10 -10 -10 -10 -9 -9 -9 -9 -9 -9 -9 -10 -10 -11 -11 -12 -12 -13 -12 -12 -12 -12 -12
-23 -23 -23 -23 -22 -20 -18 -16 -15 -15 -14 -11 -11 -11 -9 -9 -9 -10 -10 -10 -10 -10 -10 -10 -9 -9 -9 -10 -9 -9 -9 -10 -10 -10 -11 -12 -12 -12 -12 -12 -12 -12 -12 -12
-22 -23 -24 -23 -23 -20 -19 -17 -15 -15 -13 -11 -11 -10 -9 -9 -9 -10 -10 -10 -10 -10 -9 -9 -9 -10 -9 -9 -9 -9 -10 -10 -10 -11 -11 -12 -12 -12 -12 -12 -11 -11 -12 -12
-22 -23 -23 -23 -22 -22 -20 -19 -17 -16 -13 -12 -11 -10 -9 -9 -10 -10 -12 -11 -10 -9 -9 -10 -10 -9 -9 -9 -10 -10 -10 -10 -11 -11 -11 -11 -12 -11 -11 -11 -12 -12 -11 -11
-23 -23 -22 -22 -22 -22 -21 -20 -19 -16 -14 -12 -11 -10 -9 -9 -11 -10 -11 -10 -9 -9 -9 -9 -9 -9 -9 -10 -10 -10 -11 -11 -11 -11 -11 -11 -11 -11 -11 -11 -11 -11 -12 -11
-23 -23 -23 -23 -23 -22 -22 -20 -20 -17 -14 -11 -11 -10 -10 -10 -11 -11 -11 -10 -10 -10 -9 -9 -9 -10 -10 -10 -10 -11 -11 -11 -11 -11 -11 -11 -11 -11 -11 -11 -12 -12 -12 -11
-24 -23 -23 -23 -23 -23 -23 -22 -20 -17 -14 -12 -11 -11 -10 -10 -10 -12 -11 -10 -11 -10 -10 -10 -10 -10 -10 -10 -10 -11 -11 -11 -11 -11 -11 -11 -11 -11 -11 -12 -12 -12 -12 -12
-24 -23 -23 -23 -23 -23 -22 -22 -21 -17 -15 -12 -11 -11 -12 -10 -10 -11 -12 -11 -11 -10 -10 -10 -10 -10 -10 -10 -11 -11 -11 -11 -11 -11 -11 -11 -11 -12 -12 -12 -12 -12 -12 -12
-24 -23 -23 -23 -23 -23 -22 -21 -21 -18 -14 -12 -11 -10 -13 -12 -11 -11 -11 -12 -11 -11 -10 -10 -11 -11 -11 -11 -11 -11 -11 -11 -10 -11 -11 -11 -11 -11 -11 -11 -11 -12 -12 -12
-24 -23 -23 -23 -23 -23 -23 -22 -20 -18 -14 -12 -11 -11 -13 -12 -12 -12 -12 -12 -12 -11 -10 -10 -11 -11 -11 -11 -11 -11 -11 -10 -11 -11 -11 -11 -11 -11 -11 -11 -12 -12 -12 -12
-24 -23 -23 -23 -23 -23 -22 -22 -20 -18 -15 -12 -11 -11 -13 -13 -13 -13 -12 -12 -12 -10 -10 -11 -11 -12 -11 -11 -11 -11 -10 -11 -11 -11 -11 -11 -11 -11 -12 -12 -12 -12 -12 -12
-23 -23 -23 -23 -23 -22 -21 -22 -21 -19 -16 -13 -11 -12 -13 -14 -13 -13 -12 -12 -12 -10 -10 -12 -12 -12 -12 -11 -11 -11 -11 -11 -11 -11 -11 -11 -11 -12 -12 -12 -12 -12 -12 -12
-23 -23 -22 -22 -23 -22 -22 -22 -20 -18 -16 -15 -13 -13 -14 -14 -13 -13 -13 -13 -12 -11 -10 -12 -12 -12 -12 -11 -11 -11 -11 -11 -11 -11 -11 -11 -11 -11 -11 -11 -12 -12 -12 -12
-22 -22 -22 -22 -22 -22 -22 -21 -20 -18 -16 -14 -12 -14 -14 -14 -14 -13 -12 -13 -12 -11 -12 -12 -13 -12 -12 -11 -11 -11 -11 -11 -11 -11 -11 -11 -11 -11 -11 -12 -12 -12 -12 -12
-22 -22 -21 -22 -21 -21 -21 -21 -21 -19 -17 -15 -13 -14 -14 -13 -13 -13 -13 -13 -12 -12 -11 -12 -13 -12 -12 -11 -11 -11 -11 -11 -11 -11 -11 -11 -11 -11 -12 -12 -12 -12 -12 -12
-21 -21 -21 -21 -21 -21 -20 -20 -20 -18 -16 -15 -13 -14 -14 -13 -13 -13 -13 -13 -12 -12 -12 -12 -13 -13 -12 -11 -11 -11 -11 -11 -11 -11 -11 -11 -12 -12 -12 -12 -12 -12 -12 -12
-21 -21 -21 -20 -20 -20 -20 -19 -19 -19 -17 -16 -13 -15 -13 -13 -13 -13 -13 -12 -12 -12 -12 -13 -13 -13 -12 -11 -11 -11 -12 -12 -12 -12 -12 -12 -12 -12 -12 -12 -12 -12 -12 -12
-20 -20 -20 -20 -20 -20 -19 -19 -18 -18 -17 -17 -15 -14 -14 -13 -14 -13 -13 -12 -12 -12 -13 -13 -14 -13 -12 -12 -11 -12 -12 -12 -12 -12 -12 -13 -13 -13 -13 -12 -12 -12 -12 -12
-20 -20 -20 -20 -19 -19 -19 -19 -18 -18 -17 -17 -14 -14 -14 -14 -13 -13 -13 -12 -13 -12 -13 -13 -13 -13 -12 -12 -12 -12 -12 -12 -12 -12 -13 -13 -13 -14 -14 -13 -12 -12 -12 -12
-20 -20 -19 -19 -19 -19 -19 -18 -19 -18 -16 -15 -14 -14 -14 -14 -13 -13 -12 -12 -13 -13 -13 -14 -13 -13 -12 -12 -12 -12 -12 -12 -12 -12 -13 -13 -13 -14 -14 -13 -12 -13 -12 -12
-19 -19 -20 -19 -19 -19 -18 -19 -18 -16 -15 -16 -15 -14 -14 -13 -13 -13 -13 -13 -13 -13 -13 -13 -13 -13 -13 -12 -12 -12 -12 -12 -12 -12 -13 -13 -13 -13 -14 -13 -13 -13 -13 -12
Height
5647 5649 5668 5683 5683 5687 5688 5692 5698 5704 5709 5715 5724 5729 5739 5745 5748 5754 5760 5766 5768 5771 5774 5776 5779 5779 5780 5779 5780 5780 5781 5779 5778 5777 5776 5775 5773 5771 5769 5768 5765 5765 5764 5762
5621 5632 5650 5657 5657 5665 5671 5676 5683 5691 5697 5703 5714 5715 5729 5731 5739 5746 5751 5755 5759 5762 5764 5766 5769 5771 5773 5771 5771 5772 5771 5770 5769 5769 5769 5767 5764 5762 5760 5759 5759 5758 5756 5756
5594 5615 5624 5628 5634 5646 5654 5662 5670 5677 5685 5693 5702 5704 5713 5724 5730 5737 5741 5746 5749 5754 5755 5756 5759 5760 5761 5762 5763 5763 5763 5763 5763 5763 5760 5758 5757 5755 5754 5753 5752 5751 5751 5749
5577 5591 5600 5603 5615 5626 5633 5645 5656 5665 5673 5684 5690 5687 5703 5718 5723 5728 5732 5738 5742 5742 5744 5747 5748 5749 5752 5754 5755 5755 5755 5756 5755 5753 5751 5750 5750 5749 5748 5748 5747 5746 5744 5742
5574 5582 5587 5586 5598 5603 5620 5632 5645 5651 5657 5670 5682 5676 5704 5712 5716 5722 5727 5729 5729 5731 5733 5736 5739 5741 5745 5746 5747 5748 5748 5748 5747 5745 5744 5744 5744 5744 5744 5743 5742 5739 5738 5737
5570 5572 5573 5580 5586 5594 5611 5618 5629 5637 5647 5654 5674 5673 5694 5705 5711 5714 5716 5719 5721 5724 5726 5729 5733 5737 5737 5739 5740 5742 5741 5741 5740 5740 5739 5739 5740 5739 5738 5737 5736 5734 5732 5730
5562 5565 5569 5573 5577 5585 5595 5606 5618 5623 5630 5655 5664 5668 5692 5695 5700 5704 5709 5710 5714 5717 5722 5725 5728 5730 5731 5733 5735 5735 5735 5735 5735 5735 5734 5734 5734 5734 5732 5731 5730 5729 5727 5725
5560 5560 5560 5567 5573 5583 5587 5597 5609 5613 5628 5651 5658 5665 5680 5688 5695 5697 5700 5703 5707 5711 5716 5719 5722 5724 5726 5727 5728 5728 5728 5729 5729 5730 5729 5728 5729 5728 5726 5725 5724 5723 5721 5719
5559 5559 5560 5564 5571 5576 5580 5584 5603 5607 5622 5639 5645 5665 5672 5681 5688 5693 5696 5695 5701 5706 5710 5714 5716 5719 5721 5722 5722 5721 5723 5724 5725 5725 5723 5723 5723 5723 5721 5720 5718 5717 5716 5714
5559 5561 5561 5563 5568 5571 5575 5585 5588 5597 5615 5629 5646 5656 5660 5672 5680 5684 5690 5694 5698 5703 5706 5708 5712 5714 5716 5717 5717 5718 5720 5721 5720 5720 5719 5719 5718 5717 5716 5715 5713 5711 5710 5709
5557 5559 5563 5563 5566 5567 5569 5575 5580 5594 5608 5622 5638 5646 5652 5662 5674 5679 5685 5690 5695 5698 5701 5705 5707 5710 5712 5713 5713 5714 5716 5716 5716 5716 5716 5715 5714 5713 5711 5709 5708 5707 5706 5706
5556 5557 5558 5560 5559 5562 5565 5569 5575 5584 5601 5613 5625 5635 5641 5654 5663 5674 5680 5687 5690 5694 5698 5701 5704 5706 5708 5708 5710 5712 5712 5712 5712 5712 5712 5711 5710 5708 5707 5706 5705 5704 5703 5703
5552 5552 5553 5554 5557 5557 5559 5566 5570 5577 5587 5602 5613 5628 5635 5646 5655 5666 5675 5683 5687 5691 5695 5698 5701 5703 5704 5705 5706 5708 5708 5708 5709 5709 5709 5707 5706 5704 5703 5703 5702 5702 5701 5700
5546 5548 5548 5550 5550 5552 5555 5559 5564 5568 5581 5595 5605 5617 5635 5640 5648 5658 5669 5677 5683 5688 5692 5694 5698 5700 5701 5701 5703 5704 5704 5705 5706 5706 5705 5703 5703 5701 5700 5699 5699 5699 5698 5697
5542 5543 5544 5543 5545 5546 5548 5552 5556 5561 5574 5584 5597 5606 5628 5636 5644 5653 5662 5671 5678 5684 5689 5691 5694 5696 5697 5698 5700 5700 5701 5702 5703 5702 5701 5700 5699 5697 5696 5694 5694 5695 5694 5694
5536 5539 5539 5539 5540 5541 5544 5547 5550 5556 5566 5579 5588 5601 5623 5631 5640 5649 5657 5666 5674 5681 5685 5687 5689 5692 5694 5695 5696 5697 5698 5699 5700 5699 5698 5696 5694 5693 5692 5691 5691 5691 5692 5692
5530 5533 5535 5536 5536 5535 5539 5541 5541 5550 5559 5571 5578 5601 5616 5625 5636 5645 5654 5663 5671 5676 5679 5684 5686 5688 5691 5693 5693 5695 5696 5697 5697 5697 5695 5693 5692 5692 5690 5689 5690 5690 5691 5692
5529 5530 5532 5534 5532 5530 5533 5531 5535 5540 5549 5560 5569 5597 5609 5620 5630 5640 5651 5659 5666 5672 5675 5679 5683 5685 5688 5690 5691 5693 5694 5695 5695 5694 5693 5692 5692 5691 5689 5689 5689 5690 5691 5691
5529 5530 5530 5530 5529 5528 5528 5527 5530 5535 5547 5555 5567 5593 5603 5615 5626 5637 5647 5655 5663 5668 5669 5674 5679 5681 5684 5688 5690 5691 5692 5693 5693 5692 5692 5692 5690 5689 5688 5689 5689 5689 5690 5691
5531 5529 5531 5528 5527 5524 5522 5526 5528 5531 5542 5550 5567 5587 5598 5610 5623 5634 5643 5650 5658 5662 5667 5671 5677 5679 5682 5686 5688 5689 5691 5692 5692 5691 5691 5690 5689 5688 5688 5688 5688 5688 5689 5691
5532 5530 5530 5527 5526 5527 5526 5527 5528 5531 5544 5550 5570 5584 5594 5608 5621 5630 5638 5646 5654 5661 5666 5670 5674 5677 5681 5684 5686 5688 5690 5690 5690 5690 5690 5689 5689 5687 5687 5687 5687 5687 5688 5690
5533 5532 5531 5529 5527 5526 5527 5526 5527 5530 5538 5552 5569 5581 5593 5607 5617 5624 5633 5644 5652 5657 5664 5668 5672 5675 5680 5683 5685 5687 5689 5690 5689 5689 5689 5688 5688 5687 5686 5686 5686 5687 5688 5690
5535 5534 5532 5532 5531 5529 5526 5524 5525 5530 5540 5553 5566 5580 5591 5605 5611 5624 5635 5644 5649 5656 5662 5666 5670 5674 5679 5681 5684 5687 5688 5689 5689 5688 5688 5689 5689 5688 5686 5686 5685 5686 5687 5690
5538 5537 5535 5534 5531 5529 5528 5526 5528 5533 5544 5555 5566 5579 5591 5601 5614 5626 5635 5641 5645 5652 5659 5666 5669 5673 5678 5682 5684 5687 5688 5689 5689 5689 5689 5690 5690 5689 5687 5686 5685 5686 5687 5690
5542 5540 5538 5535 5533 5531 5527 5529 5533 5539 5549 5560 5570 5579 5590 5604 5616 5625 5631 5639 5645 5651 5659 5664 5668 5671 5677 5682 5684 5686 5687 5688 5689 5689 5690 5691 5692 5691 5689 5688 5687 5688 5690 5693
5544 5541 5539 5536 5534 5531 5529 5533 5538 5544 5552 5562 5572 5581 5591 5604 5615 5624 5630 5637 5642 5651 5657 5662 5668 5671 5677 5680 5683 5685 5687 5688 5689 5689 5691 5692 5694 5694 5693 5691 5691 5691 5692 5695
Wind_Speed
74 76 70 64 67 65 67 68 66 66 66 64 69 72 66 64 62 55 51 47 45 43 44 47 47 48 46 46 42 42 42 42 43 44 44 44 34 31 30 34 38 34 31 36
72 75 71 71 74 71 69 68 67 64 63 63 61 65 61 62 58 50 44 44 43 42 40 43 46 42 40 40 41 42 42 43 45 45 44 33 32 33 35 36 30 29 31 33
64 66 69 77 77 75 73 70 67 66 63 61 57 61 58 55 54 49 46 43 41 40 42 41 38 38 38 40 42 42 41 44 38 40 36 33 29 29 27 26 26 29 31 34
46 55 64 73 79 76 76 73 69 66 63 59 56 63 54 47 45 42 40 38 35 38 39 33 37 38 39 40 39 37 41 34 36 37 34 25 22 22 22 23 25 30 32 28
29 39 52 66 74 78 75 73 69 67 65 60 56 62 48 40 41 38 33 33 38 35 34 33 37 37 35 33 35 37 33 34 34 32 24 21 21 22 22 24 27 29 29 27
27 28 38 51 61 66 68 70 67 67 64 63 54 56 42 33 34 34 34 32 32 31 32 33 31 30 31 35 34 33 33 32 30 23 21 21 21 22 25 26 27 28 27 25
20 22 36 35 47 58 62 67 61 63 66 55 52 52 25 27 31 31 31 33 32 31 27 24 25 28 29 31 30 31 30 26 22 20 20 19 22 24 25 26 24 24 22 21
19 18 25 34 33 42 54 59 65 68 60 51 49 45 30 30 18 11 27 31 28 25 23 22 24 25 25 24 24 23 21 20 18 18 19 19 20 23 24 22 19 19 18 19
3 13 13 25 27 30 44 50 51 54 59 54 53 40 36 34 32 28 19 22 25 23 22 21 24 21 19 17 18 17 16 16 17 19 16 18 21 22 19 15 16 17 20 18
9 9 12 16 19 29 34 41 46 52 52 55 49 44 44 36 26 26 23 17 20 19 23 24 17 15 13 13 13 11 15 16 17 16 17 18 18 15 14 15 18 19 14 13
10 9 10 12 15 22 27 40 45 48 51 50 49 51 49 43 38 24 21 18 17 21 19 17 13 12 13 14 11 12 15 14 15 15 15 13 12 13 14 16 16 12 11 10
10 8 8 15 22 24 29 37 43 50 52 52 52 53 48 46 41 32 28 18 20 19 15 12 12 12 15 11 10 10 10 12 14 13 10 10 12 15 14 14 13 12 10 8
13 14 13 14 18 26 28 32 43 51 55 56 57 55 43 47 42 35 37 28 28 21 16 14 14 14 10 9 9 9 11 11 11 8 8 11 14 14 14 13 11 11 9 7
18 16 18 17 19 23 29 33 40 52 57 58 59 58 26 24 30 34 34 31 27 22 19 16 13 10 6 6 8 10 10 9 6 6 8 9 9 10 10 13 11 9 8 7
24 16 17 18 21 22 27 34 40 52 59 61 60 60 31 31 37 41 40 33 29 27 20 15 11 7 5 5 6 8 7 6 5 6 8 9 11 11 12 13 10 7 8 7
25 22 19 16 19 20 24 28 40 50 59 60 62 57 46 40 45 45 41 36 32 29 22 13 12 6 4 4 6 6 5 5 4 6 8 10 7 7 8 8 6 7 6 6
19 21 22 14 20 23 17 21 37 48 57 61 63 52 52 46 47 47 41 34 30 29 21 15 12 6 3 5 5 5 5 5 4 5 7 5 5 5 4 2 4 7 7 7
9 16 20 16 23 24 16 21 28 50 57 60 62 45 52 50 49 47 40 38 32 26 23 19 12 7 5 5 5 6 5 4 3 4 3 3 4 4 3 5 6 7 6 9
8 13 15 16 22 18 19 15 18 45 57 61 61 52 57 54 52 48 44 41 35 32 27 23 17 10 5 5 7 6 5 4 3 1 1 2 4 4 3 6 5 7 6 8
7 5 4 11 11 13 1 9 11 27 49 59 55 62 59 55 58 48 47 41 38 34 27 23 16 11 6 8 7 7 6 5 2 2 2 2 4 3 5 5 4 7 8 8
4 6 6 8 7 2 5 9 11 27 44 58 52 67 64 59 51 51 49 46 39 30 26 24 19 12 8 8 7 8 6 5 4 4 2 1 3 3 4 5 3 4 8 10
6 3 3 4 10 13 6 7 10 20 38 52 57 63 62 62 57 55 51 45 38 36 28 23 18 11 11 8 8 8 7 6 6 6 4 4 6 5 3 5 6 3 7 12
7 6 3 7 11 10 5 6 2 20 36 38 48 64 62 61 56 51 43 39 36 42 27 22 16 14 12 8 9 10 9 7 6 8 6 7 8 9 7 2 4 4 8 14
5 4 11 10 12 12 1 20 8 19 25 30 48 66 60 59 54 47 42 40 19 29 27 22 16 16 14 11 11 11 10 9 7 9 8 8 7 8 9 6 5 6 9 15
8 9 6 11 8 9 17 12 12 21 36 37 48 64 63 55 51 40 35 28 29 33 30 22 18 18 17 14 12 12 11 11 8 9 9 9 8 9 9 8 7 10 11 14
6 3 4 6 11 13 25 15 21 35 24 37 39 61 62 52 48 40 38 40 36 38 33 25 18 17 20 17 14 12 11 11 10 11 10 10 10 9 9 9 10 12 15 16
Wind_Direction
253 247 247 246 247 244 245 246 246 246 248 248 250 251 251 256 255 258 254 260 258 260 258 254 254 258 261 263 266 267 267 270 271 273 278 279 287 286 286 288 281 281 277 275
249 248 245 240 239 239 240 241 242 244 245 249 247 251 252 254 255 256 254 253 256 258 257 254 253 257 259 258 257 260 262 265 266 273 277 284 287 286 284 276 276 274 271 280
243 237 234 236 234 234 236 238 239 240 243 245 249 249 250 251 253 256 256 256 257 259 257 256 254 251 247 248 253 258 265 265 274 277 281 284 286 287 285 271 266 270 275 287
247 229 226 230 231 230 230 232 236 238 239 242 246 249 245 249 253 253 253 257 256 254 257 252 244 243 242 246 254 264 264 272 276 281 285 287 285 286 276 270 271 274 280 285
252 236 230 228 226 225 226 229 231 235 237 237 239 248 239 246 252 254 257 251 250 252 254 243 238 242 247 256 258 261 264 271 280 287 290 280 279 277 273 280 280 281 283 285
248 246 238 236 227 228 226 225 227 231 233 234 235 246 247 245 243 243 245 245 250 251 246 242 246 251 254 250 255 258 266 279 288 285 271 267 273 273 280 284 279 280 285 289
254 267 240 234 231 223 224 224 224 229 230 230 233 239 244 239 236 235 237 243 245 249 243 244 246 247 249 252 255 266 276 281 272 263 265 266 267 278 283 279 282 282 282 282
266 263 230 232 235 231 221 222 226 228 228 225 229 232 229 229 225 235 233 241 239 242 243 243 238 246 251 254 266 268 268 257 255 259 262 267 279 283 279 283 282 284 286 291
62 222 217 220 228 226 220 217 220 226 227 221 224 223 224 229 232 228 223 219 229 229 222 228 235 242 256 263 258 245 243 246 250 262 273 281 280 275 279 278 283 289 292 289
278 211 202 200 213 224 216 217 211 217 220 221 219 219 221 221 221 207 219 209 215 216 219 230 234 244 245 243 238 238 245 243 258 271 278 272 274 277 278 284 292 291 283 273
270 244 255 255 221 207 216 215 215 214 213 215 215 219 222 224 212 215 212 211 212 217 226 238 235 244 236 235 235 239 244 254 265 269 264 269 276 280 286 294 289 277 268 264
261 247 219 237 237 235 231 219 215 209 209 208 211 216 223 219 218 198 202 196 210 221 236 242 234 227 234 232 236 239 246 260 268 263 260 274 280 280 282 281 278 264 251 263
271 268 254 256 238 233 234 231 220 211 206 203 209 206 213 218 217 202 207 206 209 221 225 213 215 216 222 222 229 242 253 265 260 257 279 291 288 278 269 252 265 240 246 263
258 262 266 260 263 247 239 238 227 215 205 202 206 209 189 196 205 198 194 192 203 209 206 198 196 201 218 221 230 238 258 256 250 268 294 300 289 274 267 268 267 240 238 261
263 255 249 258 254 253 241 232 231 219 204 203 205 209 174 190 177 176 178 189 200 204 198 188 179 189 209 225 236 255 255 251 245 286 306 297 295 288 273 266 259 228 230 248
256 252 248 249 247 246 245 246 231 220 206 201 205 206 186 185 175 176 182 190 195 201 194 175 161 179 214 232 250 247 245 238 263 297 314 311 312 294 280 266 235 224 219 233
249 234 235 255 257 250 258 239 234 221 209 203 206 198 183 184 178 180 182 190 190 194 185 171 176 176 246 263 244 219 248 237 267 313 323 335 320 293 277 251 203 190 207 208
211 230 247 258 255 266 258 222 230 216 209 209 210 185 186 182 182 184 185 192 188 192 188 176 179 184 253 269 225 236 225 230 266 321 345 347 301 301 272 245 229 214 207 196
239 255 262 267 264 268 286 233 212 219 206 204 205 179 182 178 184 183 185 190 187 193 189 177 187 186 232 235 219 226 204 217 250 22 60 320 302 268 242 222 195 195 196 191
329 289 232 234 286 1 345 218 226 213 210 206 199 179 176 176 177 180 186 189 191 195 198 176 182 188 208 201 220 200 194 207 174 129 238 323 311 255 228 239 207 204 208 198
58 209 215 278 318 86 298 244 235 217 200 204 187 181 178 183 177 186 189 193 191 192 202 181 182 180 193 194 198 184 181 186 143 155 165 28 339 318 229 217 188 185 194 195
312 255 215 294 338 360 330 248 247 215 204 202 186 181 177 175 179 185 187 190 191 192 186 179 173 180 182 188 181 174 176 161 140 150 106 52 32 57 113 186 218 203 187 185
54 37 4 355 3 337 297 164 274 198 196 195 189 182 182 179 184 185 184 195 201 195 176 176 174 178 173 177 174 173 169 149 147 134 99 77 54 44 42 102 193 185 173 189
61 48 60 50 39 33 98 189 240 188 181 180 184 184 185 183 184 187 190 198 204 174 176 183 177 172 171 174 171 170 164 141 140 126 111 103 70 40 35 75 162 148 145 168
70 58 49 27 30 57 99 184 158 155 156 172 179 186 190 183 182 186 200 204 196 179 187 180 184 165 177 176 163 163 157 141 137 124 122 119 93 60 47 77 107 138 144 156
52 9 335 17 33 46 100 151 155 145 146 181 181 189 188 182 185 190 195 179 187 194 184 180 178 166 183 182 171 163 157 147 140 132 127 129 113 79 62 92 106 123 138 151